Regional Weather Roundup
Issued by NWS

Home | Current Version | Previous Version | Text Only | Print | Product List | Glossary On
Versions: 1 2 3 4 5 6 7 8 9 10 11 12 13 14 15 16 17 18 19 20 21 22 23 24 25 26 27 28 29 30 31 32 33 34 35 36 37 38 39 40 41 42 43 44 45 46 47 48 49 50
000
ASUS43 KMPX 251110
RWRMN
WEATHER ROUNDUP FOR MINNESOTA
NATIONAL WEATHER SERVICE TWIN CITIES/CHANHASSEN MN
600 AM CDT SAT APR 25 2015


NOTE: "FAIR" INDICATES FEW OR NO CLOUDS BELOW 12,000 FEET WITH NO
SIGNIFICANT WEATHER AND/OR OBSTRUCTIONS TO VISIBILITY. N/A MEANS
CURRENT SKY AND/OR WEATHER CONDITIONS ARE NOT AVAILABLE.

MNZ060>063-068>070-251200-
   Twin Cities Metro

CITY           SKY/WX    TMP DP  RH WIND       PRES   REMARKS
TWIN CITIES    CLOUDY    43  37  79 E14       29.81S
ST PAUL        CLOUDY    43  36  76 SE7G21    29.83S
CRYSTAL        CLOUDY    44  37  76 E10       29.81S
BLAINE         CLOUDY    45  37  76 E9        29.82S
LAKEVILLE      CLOUDY    39  37  93 E12       29.79S
EDEN PRAIRIE   CLOUDY    43  37  79 E12       29.79R
SOUTH ST PAUL  CLOUDY    43  37  77 E10       29.81F
LAKE ELMO      CLOUDY    43  37  81 E13G20    29.83F
$$
MNZ001>005-007-008-013>017-022>024-027-028-251200-
   Northwest Minnesota

CITY           SKY/WX    TMP DP  RH WIND       PRES   REMARKS
BEMIDJI        MOCLDY    38  26  62 E8        29.87S
HALLOCK        MOCLDY    41  30  65 E8        29.87S
ROSEAU         CLOUDY    39  28  65 E8        29.91R
WARROAD        CLOUDY    37  28  70 E8        29.93R
THIEF RVR FALL CLOUDY    41  28  60 E12       29.88R
CROOKSTON      CLOUDY    43  32  65 E8        29.87R
FOSSTON        CLOUDY    39  28  65 E7        29.86S
DETROIT LAKES  CLOUDY    41  34  75 E9        29.82S
MOORHEAD       CLOUDY    43  36  75 E7        29.82S
PARK RAPIDS    CLOUDY    40  30  67 E9        29.84S
MAHNOMEN       CLOUDY    41  33  73 E9        29.83S
$$
MNZ006-009>011-018-025>026-251200-
   North Central Minnesota

CITY           SKY/WX    TMP DP  RH WIND       PRES   REMARKS
BAUDETTE       CLOUDY    37  23  56 E9        29.92S
FLAG ISLAND    CLOUDY    39  27  60 SE5       29.93S
INTL FALLS     CLOUDY    36  19  50 E6        29.95R
WASKISH        CLOUDY    37  21  52 CALM      29.92R
BIG FORK       CLOUDY    37  19  48 E5        29.92R
LONGVILLE      CLOUDY    37  27  65 E3        29.88S
GRAND RAPIDS   CLOUDY    37  19  48 E8        29.91R
CRANE LAKE     CLOUDY    34  16  47 CALM      29.98S
ORR            CLOUDY    36  16  44 CALM      29.92R
COOK           CLOUDY    36  16  44 E3        29.94R
WALKER         CLOUDY    37  28  68 E8        29.88R
$$
MNZ012-019>021-037-251200-
   Northeast Minnesota

CITY           SKY/WX    TMP DP  RH WIND       PRES   REMARKS
DULUTH         CLOUDY    34  24  67 E10       29.93R WCI  26
ELY            CLOUDY    36  10  35 NE5       29.95S
HIBBING        CLOUDY    37  16  42 E7        29.92R
EVELETH        CLOUDY    36  16  44 E5        29.94R
DULUTH HARBOR  CLOUDY    36  32  87 NE23      29.97R
TWO HARBORS    CLOUDY    37  25  60 NE10G17   29.95R
SILVER BAY     CLOUDY    36  18  48 N8        29.96S
GRAND MARAIS     N/A     35  21  56 NE12      30.02R WCI  27
G MARAIS ARPRT CLOUDY    30   9  40 N10       29.99R WCI  21
$$
MNZ029>031-032-039>041-046>048-054>057-064-251200-
   West Central Minnesota

CITY           SKY/WX    TMP DP  RH WIND       PRES   REMARKS
FERGUS FALLS   CLOUDY    43  37  81 E8G17     29.81R
WHEATON        CLOUDY    39  39 100 E10       29.79R FOG
MORRIS         CLOUDY    43  43 100 E17       29.75R
ALEXANDRIA     LGT RAIN  41  39  93 E15G22    29.79S FOG
ELBOW LAKE     CLOUDY    42  40  95 E14G20    29.77S
WADENA         CLOUDY    37  32  81 E8G16     29.82S
GLENWOOD       CLOUDY    41  39  93 E15G22    29.78S FOG
APPLETON       CLOUDY    45  43  93 E15       29.74S FOG
BENSON         CLOUDY    43  39  87 SE12G20   29.75S
ORTONVILLE     CLOUDY    43  39  87 E12       29.74R
MADISON        CLOUDY    45  43  93 E16       29.74R FOG
WILLMAR        CLOUDY    43  43 100 E17       29.78S FOG
$$
MNZ033>034-036-042>043-049>051-058-059-251200-
   Central Minnesota

CITY           SKY/WX    TMP DP  RH WIND       PRES   REMARKS
ST CLOUD       CLOUDY    42  37  82 E8        29.81F
SAUK CENTRE    CLOUDY    40  39  97 E10G17    29.80S FOG
PAYNESVILLE    CLOUDY    38  39 100 NE9G16    29.79S FOG
AITKIN         CLOUDY    37  30  75 NE5       29.87R
PINE RIVER     CLOUDY    37  30  75 E7        29.90S
BRAINERD       CLOUDY    38  31  76 E7        29.86R
STAPLES        CLOUDY    37  32  81 E6        29.83F
LONG PRAIRIE   CLOUDY    37  36  93 NE10      29.81S
LITTLE FALLS   CLOUDY    37  32  81 E6        29.83S
LITCHFIELD     CLOUDY    43  43 100 E12       29.79S FOG
BUFFALO        CLOUDY    43  37  79 E12       29.81S
MAPLE LAKE     CLOUDY    44  39  85 E10       29.81S
$$
MNZ037-044-045-052-053-251200-
   East Central Minnesota

CITY           SKY/WX    TMP DP  RH WIND       PRES   REMARKS
PRINCETON      CLOUDY    45  37  76 E6        29.83F
MORA           CLOUDY    37  30  75 NE6       29.87S
CAMBRIDGE      CLOUDY    45  34  65 E6        29.82S
RUSH CITY      CLOUDY    43  34  71 E5        29.86S
MOOSE LAKE     CLOUDY    34  30  86 CALM      29.89R
HINCKLEY       CLOUDY    39  32  75 NE3       29.88R
CLOQUET        CLOUDY    34  27  75 E13       29.92R WCI  25
MCGREGOR       CLOUDY    36  30  80 E7        29.89S
$$
MNZ071>073-080-081-089-090-097-098-251200-
   Southwest Minnesota

CITY           SKY/WX    TMP DP  RH WIND       PRES   REMARKS
MONTEVIDEO     CLOUDY    43  43 100 SE15      29.75S FOG
GRANITE FALLS  CLOUDY    43  40  88 E15G21    29.75R
CANBY          CLOUDY    43  41  93 E13       29.73R
MARSHALL       CLOUDY    43  37  81 E12       29.72R
REDWOOD FALLS  CLOUDY    44  39  82 E16G23    29.74S
OLIVIA         CLOUDY    41  36  81 E13G20    29.75R
PIPESTONE      CLOUDY    43  41  93 E12       29.65S
WINDOM         CLOUDY    43  39  87 E12       29.70S
WORTHINGTON    CLOUDY    43  37  81 E17       29.68R
JACKSON        CLOUDY    43  37  81 E15       29.69R
TRACY          CLOUDY    44  40  87 E13       29.71S
SLAYTON        CLOUDY    42  41  97 E15       29.69S
$$
MNZ065>067-074>077-082>085-091>093-251200-
   South Central Minnesota

CITY           SKY/WX    TMP DP  RH WIND       PRES   REMARKS
MANKATO        CLOUDY    43  36  75 E14       29.75S
NEW ULM        MOCLDY    43  37  81 E10       29.74S
ST JAMES       CLOUDY    45  39  81 NE14      29.73R
FAIRMONT       CLOUDY    43  16  33 E13       29.70R
GLENCOE        CLOUDY    44  40  88 E9G17     29.78R
FARIBAULT      CLOUDY    43  37  81 NE10G20   29.78S
OWATONNA       CLOUDY    41  36  81 E15G22    29.76R
WASECA         CLOUDY    43  37  81 E21       29.75S
ALBERT LEA     MOCLDY    41  37  87 E10       29.73R
$$
MNZ078>079-086>088-094>096-251200-
   Southeast Minnesota

CITY           SKY/WX    TMP DP  RH WIND       PRES   REMARKS
ROCHESTER      CLOUDY    40  35  83 E15       29.77S
RED WING       CLOUDY    43  37  81 E9G20     29.81S
STANTON        CLOUDY    43  37  81 E14       29.78S
DODGE CENTER   CLOUDY    39  37  93 E17       29.76S
AUSTIN         CLOUDY    39  36  87 E15G22    29.74R
PRESTON        CLOUDY    38  34  83 E14       29.77S
$$
ABBREVIATIONS USED IN REMARKS
   TC - TEMPERATURES IN CELSIUS
  WCI - WIND CHILL INDEX
   HX - HEAT INDEX
  VSB - VISIBILITY
$$


USA.gov is the U.S. government's official web portal to all federal, state and local government web resources and services.